User: anonymous   Login
Location: Caltech
(34.1382°N, 118.1253°W)
Time: 03:52:31
(UTC-08:00)
Language:

Gbstr 26 Del rocket - Orbit

View from above orbital plane
View from above orbital plane
View from above satellite
View from above satellite

Ground track
Ground track

The orbit data is extracted from the following two-line orbital elements,

1 25876U 99041E   17019.99271646 -.00000142  00000-0  15636-4 0  9996
2 25876  51.7654 181.5065 0531594 316.2096  39.7811 14.03973247893793
Epoch (UTC): 19 January 2017 23:49:30
Eccentricity: 0.0531594
inclination: 51.7654°
perigee height: 494 km
apogee height: 1266 km
right ascension of ascending node: 181.5065°
argument of perigee: 316.2096°
revolutions per day: 14.03973247
mean anomaly at epoch: 39.7811°
orbit number at epoch: 89379

The dashed part of the orbit path shows where the satellite is in the earth's shadow,  

DLR